Temp
-6 -6 -7 -8 -7 -7 -7 -7 -7 -7 -7 -8 -8 -8 -6 -6 -6 -6 -7 -7 -8 -8 -8 -8 -8 -7 -8 -8 -8 -8 -8 -8 -8 -7 -6 -8 -8 -8 -8 -8 -8 -7 -7 -7
-6 -6 -7 -7 -6 -7 -7 -7 -6 -7 -8 -7 -7 -7 -7 -6 -6 -6 -7 -8 -8 -8 -8 -8 -8 -8 -7 -8 -8 -8 -8 -8 -8 -9 -9 -8 -8 -8 -8 -8 -8 -8 -8 -7
-6 -7 -6 -6 -6 -6 -7 -7 -6 -7 -8 -8 -7 -7 -7 -7 -7 -7 -7 -8 -8 -8 -8 -9 -8 -8 -8 -8 -9 -9 -9 -9 -8 -9 -9 -9 -8 -8 -8 -9 -8 -8 -7 -7
-7 -6 -6 -6 -6 -6 -6 -7 -7 -7 -7 -8 -7 -7 -7 -7 -7 -8 -8 -7 -8 -8 -8 -9 -8 -9 -8 -8 -8 -9 -10 -9 -9 -9 -9 -8 -8 -9 -9 -8 -8 -7 -7 -7
-6 -6 -6 -6 -6 -6 -7 -6 -6 -6 -7 -7 -7 -7 -7 -7 -7 -7 -7 -8 -8 -9 -8 -9 -9 -8 -8 -8 -8 -8 -9 -9 -9 -9 -9 -9 -8 -8 -9 -9 -8 -7 -7 -6
-7 -7 -7 -6 -7 -6 -6 -6 -6 -6 -7 -7 -7 -7 -7 -7 -7 -7 -8 -8 -9 -9 -9 -9 -8 -8 -8 -8 -8 -8 -9 -9 -9 -8 -9 -9 -9 -9 -9 -8 -8 -7 -6 -6
-7 -6 -7 -7 -7 -7 -7 -7 -6 -6 -7 -7 -7 -7 -8 -8 -8 -8 -8 -8 -9 -9 -9 -9 -8 -9 -8 -8 -8 -9 -9 -10 -9 -9 -8 -9 -9 -9 -8 -8 -8 -7 -6 -6
-7 -7 -7 -7 -8 -7 -7 -7 -7 -7 -7 -7 -8 -8 -8 -8 -8 -8 -7 -8 -9 -8 -9 -9 -9 -9 -9 -8 -8 -9 -9 -10 -9 -10 -9 -9 -9 -9 -9 -8 -7 -7 -7 -7
-7 -7 -7 -8 -8 -7 -7 -7 -7 -7 -7 -7 -8 -8 -8 -8 -8 -8 -8 -9 -9 -9 -9 -10 -9 -9 -10 -9 -9 -9 -9 -9 -10 -10 -9 -10 -9 -9 -8 -8 -8 -8 -7 -7
-7 -8 -7 -8 -7 -8 -7 -8 -8 -7 -7 -8 -8 -9 -9 -8 -9 -9 -9 -8 -9 -9 -9 -10 -10 -10 -9 -9 -9 -9 -9 -10 -9 -9 -10 -9 -9 -9 -8 -8 -8 -8 -8 -7
-8 -8 -9 -9 -8 -9 -8 -9 -8 -8 -8 -8 -9 -9 -9 -9 -9 -9 -9 -9 -9 -9 -10 -9 -10 -10 -10 -9 -9 -9 -10 -10 -8 -9 -10 -9 -9 -9 -9 -8 -8 -8 -8 -7
-8 -8 -9 -9 -9 -9 -9 -9 -8 -8 -8 -9 -9 -9 -9 -9 -10 -9 -10 -10 -9 -9 -9 -10 -9 -10 -9 -9 -9 -9 -10 -9 -8 -9 -10 -9 -9 -9 -9 -8 -8 -8 -8 -7
-8 -8 -9 -10 -9 -9 -10 -9 -9 -9 -9 -9 -9 -9 -9 -9 -9 -9 -9 -9 -9 -9 -9 -9 -10 -10 -10 -9 -9 -10 -11 -10 -8 -8 -10 -9 -9 -9 -9 -9 -9 -8 -7 -8
-9 -9 -9 -9 -9 -9 -10 -10 -9 -9 -9 -8 -9 -9 -9 -9 -9 -10 -9 -9 -9 -9 -10 -9 -9 -9 -9 -9 -9 -10 -10 -10 -10 -10 -9 -9 -9 -9 -9 -9 -9 -8 -8 -8
-9 -9 -10 -10 -9 -9 -10 -10 -10 -10 -10 -9 -9 -9 -9 -9 -9 -9 -9 -9 -9 -9 -9 -9 -9 -9 -9 -9 -9 -10 -10 -10 -11 -10 -10 -10 -10 -10 -10 -10 -9 -9 -8 -8
-10 -10 -10 -10 -10 -10 -10 -10 -10 -10 -10 -9 -10 -10 -9 -9 -9 -9 -9 -9 -9 -9 -10 -10 -10 -9 -9 -10 -10 -10 -10 -9 -10 -10 -11 -10 -10 -10 -10 -10 -9 -9 -9 -8
-10 -10 -10 -10 -10 -9 -10 -10 -10 -10 -10 -10 -9 -9 -9 -9 -9 -9 -9 -9 -9 -9 -10 -10 -10 -10 -10 -10 -10 -10 -10 -10 -10 -10 -10 -11 -10 -9 -10 -9 -9 -9 -9 -9
-10 -10 -10 -10 -10 -10 -10 -10 -10 -10 -10 -10 -9 -9 -9 -9 -9 -9 -9 -9 -10 -9 -10 -11 -10 -10 -10 -10 -10 -10 -9 -9 -10 -10 -10 -10 -10 -9 -9 -9 -9 -10 -9 -9
-10 -10 -11 -10 -10 -10 -10 -10 -10 -10 -10 -10 -9 -9 -9 -9 -9 -10 -10 -11 -11 -10 -9 -10 -10 -11 -10 -10 -10 -10 -10 -10 -11 -10 -10 -9 -9 -9 -9 -9 -9 -9 -9 -9
-11 -11 -11 -11 -11 -11 -11 -11 -10 -10 -10 -10 -9 -9 -9 -9 -10 -10 -11 -11 -10 -9 -10 -11 -11 -11 -11 -10 -10 -10 -10 -10 -10 -9 -10 -9 -10 -9 -9 -9 -9 -9 -9 -10
-12 -11 -11 -11 -11 -11 -11 -11 -10 -10 -10 -11 -10 -10 -10 -10 -10 -10 -10 -10 -10 -9 -10 -11 -11 -11 -11 -10 -10 -10 -10 -10 -10 -10 -10 -10 -10 -10 -10 -10 -10 -11 -10 -10
-12 -12 -11 -11 -11 -11 -11 -11 -11 -11 -10 -10 -10 -10 -10 -10 -10 -10 -10 -10 -10 -10 -11 -11 -11 -10 -10 -10 -10 -10 -10 -10 -10 -10 -10 -10 -10 -10 -11 -10 -11 -10 -10 -9
-12 -12 -11 -11 -11 -11 -11 -11 -11 -11 -11 -11 -11 -10 -10 -10 -10 -10 -10 -10 -10 -10 -10 -10 -10 -10 -10 -10 -10 -10 -10 -10 -10 -10 -10 -10 -11 -11 -10 -11 -10 -10 -10 -10
-12 -11 -11 -11 -11 -11 -11 -11 -11 -11 -11 -11 -11 -11 -11 -10 -10 -10 -10 -10 -10 -10 -10 -10 -10 -10 -10 -10 -10 -10 -10 -10 -10 -10 -11 -11 -10 -10 -10 -10 -10 -10 -10 -10
-12 -12 -11 -11 -11 -12 -12 -12 -12 -12 -12 -11 -11 -11 -11 -11 -11 -10 -10 -10 -10 -10 -10 -10 -10 -10 -10 -10 -10 -10 -10 -10 -10 -10 -10 -10 -10 -10 -10 -10 -10 -10 -10 -10
-12 -13 -12 -12 -12 -12 -12 -12 -12 -12 -12 -12 -12 -12 -12 -12 -11 -11 -11 -11 -10 -10 -10 -10 -10 -10 -10 -10 -10 -10 -10 -10 -10 -10 -10 -10 -10 -10 -9 -9 -9 -10 -10 -10
Height
5916 5921 5922 5921 5921 5923 5925 5926 5926 5927 5928 5928 5928 5928 5927 5926 5927 5926 5925 5923 5921 5919 5914 5910 5907 5905 5901 5898 5892 5887 5882 5877 5872 5862 5852 5845 5852 5861 5869 5874 5876 5876 5877 5876
5916 5919 5918 5918 5920 5922 5924 5924 5925 5925 5926 5926 5926 5927 5922 5922 5923 5923 5922 5921 5919 5917 5913 5910 5908 5904 5902 5896 5890 5887 5884 5877 5870 5863 5857 5855 5857 5864 5869 5872 5874 5876 5875 5874
5912 5914 5914 5916 5918 5921 5922 5923 5923 5923 5923 5923 5924 5927 5924 5922 5921 5921 5921 5919 5918 5916 5913 5910 5907 5904 5902 5897 5891 5887 5882 5878 5873 5869 5866 5864 5865 5868 5870 5873 5874 5873 5873 5871
5908 5910 5911 5912 5915 5918 5921 5921 5920 5920 5922 5922 5922 5923 5923 5924 5922 5921 5921 5918 5916 5913 5911 5908 5906 5902 5903 5896 5892 5888 5883 5881 5877 5873 5871 5869 5869 5870 5871 5871 5872 5871 5870 5869
5905 5906 5908 5911 5913 5916 5918 5916 5917 5918 5920 5920 5922 5920 5920 5919 5919 5919 5917 5914 5914 5912 5909 5905 5903 5900 5895 5893 5889 5884 5882 5881 5879 5875 5873 5870 5869 5870 5871 5871 5869 5868 5867 5866
5900 5903 5906 5908 5911 5912 5913 5914 5914 5917 5917 5918 5917 5917 5917 5915 5914 5915 5913 5913 5911 5910 5906 5904 5902 5899 5896 5893 5889 5885 5881 5879 5879 5876 5874 5873 5871 5872 5871 5870 5868 5866 5865 5863
5897 5900 5902 5906 5910 5909 5910 5911 5911 5913 5913 5914 5913 5913 5913 5913 5913 5913 5912 5911 5909 5906 5905 5902 5898 5896 5894 5892 5890 5885 5881 5877 5875 5875 5874 5873 5872 5871 5872 5872 5868 5866 5863 5862
5894 5897 5899 5903 5904 5904 5906 5907 5907 5908 5910 5910 5908 5910 5911 5911 5911 5913 5912 5910 5910 5906 5904 5899 5896 5893 5890 5890 5889 5885 5880 5875 5871 5870 5870 5872 5872 5870 5871 5871 5868 5864 5863 5862
5891 5894 5895 5899 5899 5901 5901 5904 5904 5904 5906 5907 5908 5908 5908 5908 5907 5909 5910 5910 5908 5905 5900 5896 5890 5890 5887 5888 5885 5882 5877 5872 5869 5866 5864 5867 5870 5869 5869 5867 5866 5865 5864 5862
5886 5889 5891 5893 5895 5897 5899 5900 5901 5902 5903 5904 5905 5905 5903 5905 5905 5905 5907 5907 5904 5901 5898 5893 5887 5884 5886 5884 5880 5877 5871 5866 5862 5862 5863 5863 5867 5867 5865 5864 5865 5864 5864 5861
5881 5884 5887 5889 5893 5896 5896 5896 5897 5899 5900 5900 5902 5902 5901 5901 5901 5902 5902 5901 5897 5896 5892 5890 5886 5884 5885 5881 5877 5872 5862 5852 5851 5856 5859 5863 5864 5864 5863 5863 5864 5865 5864 5862
5875 5878 5882 5886 5889 5891 5891 5892 5893 5894 5898 5897 5899 5900 5899 5900 5898 5898 5898 5894 5893 5893 5891 5888 5886 5884 5882 5880 5874 5869 5857 5833 5832 5846 5855 5861 5860 5860 5861 5861 5863 5863 5863 5861
5869 5872 5878 5880 5884 5886 5887 5889 5891 5892 5893 5895 5896 5897 5897 5897 5896 5894 5893 5890 5889 5889 5889 5885 5881 5881 5880 5878 5872 5869 5860 5848 5832 5843 5850 5858 5858 5858 5858 5859 5860 5862 5861 5860
5864 5867 5872 5876 5881 5882 5885 5886 5889 5890 5892 5891 5892 5893 5895 5893 5893 5891 5889 5887 5886 5887 5886 5881 5879 5880 5878 5876 5873 5869 5864 5858 5853 5852 5851 5854 5855 5856 5857 5859 5859 5859 5859 5858
5859 5863 5868 5873 5876 5878 5881 5884 5884 5886 5887 5887 5889 5889 5891 5890 5890 5891 5890 5888 5887 5884 5881 5879 5877 5874 5874 5874 5871 5868 5866 5863 5858 5857 5856 5854 5854 5854 5855 5856 5856 5855 5855 5855
5856 5859 5864 5868 5871 5875 5877 5879 5881 5881 5882 5882 5883 5885 5886 5886 5886 5886 5885 5882 5879 5876 5874 5873 5872 5872 5872 5868 5867 5864 5864 5864 5861 5858 5859 5856 5853 5852 5854 5853 5853 5853 5852 5852
5854 5856 5860 5863 5866 5869 5873 5874 5875 5875 5875 5877 5878 5881 5881 5882 5881 5879 5878 5876 5873 5870 5869 5867 5866 5867 5866 5863 5862 5862 5862 5859 5857 5856 5854 5855 5854 5849 5848 5848 5849 5850 5849 5848
5848 5852 5855 5857 5861 5863 5866 5868 5868 5868 5868 5870 5873 5875 5876 5876 5874 5873 5871 5868 5866 5866 5858 5858 5863 5861 5859 5856 5854 5856 5858 5855 5853 5851 5848 5849 5847 5845 5843 5844 5845 5845 5844 5844
5842 5845 5848 5852 5856 5859 5858 5861 5861 5860 5860 5864 5868 5869 5870 5869 5868 5867 5864 5861 5859 5861 5858 5856 5859 5859 5851 5851 5851 5849 5853 5852 5846 5843 5842 5842 5844 5840 5839 5840 5840 5840 5841 5840
5835 5837 5842 5846 5848 5850 5853 5853 5853 5853 5854 5857 5861 5863 5864 5864 5864 5866 5862 5853 5855 5853 5853 5853 5852 5853 5851 5849 5847 5846 5848 5848 5844 5843 5842 5839 5840 5841 5839 5838 5837 5836 5836 5836
5824 5827 5832 5836 5838 5842 5845 5847 5845 5848 5852 5851 5853 5856 5859 5860 5863 5863 5863 5860 5856 5854 5851 5850 5849 5847 5846 5846 5845 5843 5842 5840 5841 5841 5840 5840 5839 5837 5838 5835 5832 5833 5835 5834
5816 5819 5824 5827 5829 5833 5839 5839 5839 5841 5842 5845 5848 5852 5853 5854 5856 5856 5855 5854 5853 5850 5848 5846 5846 5845 5843 5841 5841 5841 5838 5839 5839 5838 5836 5838 5836 5834 5833 5831 5829 5833 5833 5830
5806 5808 5814 5818 5822 5823 5827 5831 5830 5833 5837 5839 5840 5840 5842 5844 5845 5847 5847 5847 5845 5842 5842 5840 5841 5842 5840 5840 5836 5836 5834 5835 5835 5834 5833 5833 5832 5832 5832 5831 5830 5829 5829 5828
5796 5799 5803 5810 5813 5812 5817 5821 5824 5826 5827 5830 5832 5834 5834 5836 5837 5837 5838 5838 5836 5835 5834 5832 5832 5833 5832 5831 5832 5833 5832 5832 5831 5829 5829 5828 5826 5825 5825 5825 5824 5823 5822 5821
5788 5792 5795 5799 5801 5803 5808 5811 5816 5819 5821 5822 5824 5825 5825 5828 5828 5828 5829 5829 5828 5827 5826 5826 5826 5826 5825 5826 5826 5827 5827 5826 5825 5823 5823 5822 5821 5822 5821 5820 5818 5817 5816 5814
5779 5781 5785 5789 5790 5794 5797 5803 5806 5810 5813 5815 5814 5815 5816 5819 5819 5819 5818 5820 5819 5818 5818 5818 5818 5819 5820 5820 5820 5820 5819 5817 5817 5816 5816 5816 5816 5815 5814 5812 5811 5810 5808 5807
Wind_Speed
17 14 16 27 25 23 23 19 12 7 10 6 7 12 13 17 13 8 10 18 22 25 29 34 32 28 25 24 25 25 26 27 25 32 27 2 17 26 16 12 13 11 9 9
15 15 23 27 22 25 25 24 16 13 12 14 12 8 22 21 21 20 14 20 21 25 28 34 32 27 25 25 26 24 25 24 23 26 28 11 26 22 16 13 13 11 13 15
17 22 24 25 22 22 24 24 21 18 17 20 18 11 18 21 23 23 17 20 20 21 27 29 30 25 22 24 24 24 26 23 18 17 20 19 11 11 15 12 10 11 14 16
20 23 26 25 23 21 16 23 25 23 22 22 22 22 19 21 19 21 19 18 15 21 23 29 29 24 19 22 22 23 26 22 14 10 8 6 11 4 3 6 9 11 14 16
23 23 24 21 20 20 20 22 24 21 23 25 26 29 30 23 18 15 12 15 15 18 25 31 24 23 22 23 24 28 29 23 14 8 9 0 5 2 2 6 10 13 14 11
25 22 23 20 21 21 20 22 18 17 19 21 22 24 16 16 14 10 13 17 18 14 22 22 21 22 22 23 25 27 30 24 16 7 6 4 5 4 2 6 9 11 7 4
23 25 20 21 18 19 18 16 18 16 17 17 21 20 16 14 11 13 11 15 15 13 20 20 19 19 23 25 25 26 29 26 17 8 6 6 6 3 2 5 7 6 3 3
24 23 21 16 19 18 14 19 21 16 16 17 20 19 17 16 15 14 16 11 17 22 21 24 20 19 20 24 22 26 30 27 16 11 9 9 8 2 3 5 3 2 3 3
24 23 24 19 22 22 16 14 17 18 19 19 19 19 20 18 17 13 17 16 19 18 22 26 33 31 16 20 21 27 30 24 22 15 12 12 8 5 4 4 7 4 2 1
26 21 24 25 27 23 20 15 14 14 16 15 13 13 17 16 16 15 16 20 21 26 27 27 35 20 18 18 21 28 31 32 28 18 15 13 11 7 3 4 7 6 2 1
27 23 23 25 21 18 16 13 16 17 17 16 14 17 17 17 17 19 20 23 25 21 18 27 22 20 21 23 23 30 35 42 22 10 15 13 9 5 3 2 4 6 5 3
27 27 29 25 22 20 16 18 20 18 16 17 18 20 18 17 16 20 15 15 22 22 13 26 28 23 21 24 24 29 37 47 25 5 16 13 7 5 3 3 5 6 5 3
26 29 29 28 27 27 22 22 17 18 18 17 19 20 20 23 23 24 25 24 26 27 28 30 16 19 19 23 26 24 32 32 9 20 15 7 4 4 4 3 6 6 5 3
28 31 31 31 27 27 27 27 20 16 17 20 21 22 19 20 17 16 16 21 22 23 26 25 15 15 18 22 25 20 23 23 15 8 7 4 5 3 3 5 5 6 5 4
30 33 33 33 30 29 29 29 22 21 23 25 25 21 19 21 18 15 15 19 20 22 26 22 14 15 17 22 23 16 19 15 14 10 5 0 0 3 3 5 5 4 3 5
29 30 35 35 35 34 30 28 28 28 30 33 28 27 24 23 23 20 24 27 27 22 23 16 16 20 18 21 21 19 17 16 13 10 9 8 6 4 4 5 6 6 5 5
28 28 28 31 34 33 32 30 35 37 34 33 31 28 28 28 30 31 28 31 31 31 33 21 20 19 18 18 22 23 18 18 18 15 14 15 13 11 9 7 7 8 8 8
35 34 34 34 32 33 30 29 30 33 34 33 31 28 25 27 31 31 33 34 34 25 18 15 18 19 23 26 17 16 18 23 25 25 22 22 19 14 15 8 6 10 11 10
39 40 37 38 38 33 34 33 32 35 36 31 26 23 26 29 30 35 35 40 44 19 7 10 17 22 26 19 18 17 21 24 31 32 30 26 15 2 3 1 8 3 10 10
43 44 42 40 38 35 35 39 40 37 38 38 34 29 28 27 29 32 33 15 23 20 17 10 15 20 21 23 23 23 24 22 14 13 8 3 11 5 11 10 5 8 8 12
46 44 45 45 46 39 34 32 38 37 34 32 32 33 27 25 20 18 17 18 20 14 11 15 17 18 17 19 23 21 18 17 13 14 13 16 17 9 14 12 14 17 16 15
46 48 48 48 51 52 39 36 37 38 36 33 32 29 28 25 22 25 22 22 24 18 15 13 14 16 16 20 21 20 16 14 14 15 15 16 14 15 21 18 18 21 19 14
46 49 47 48 45 44 42 38 40 39 35 35 33 31 30 29 26 25 24 30 25 23 22 17 17 20 17 18 22 22 17 15 13 15 16 19 19 17 21 22 21 22 21 19
45 46 46 45 45 47 44 40 37 36 33 32 31 32 31 31 29 29 30 34 29 27 22 19 20 22 23 22 22 23 19 16 15 14 16 19 20 22 24 23 21 22 23 22
40 41 42 42 42 43 41 37 32 29 25 23 25 25 27 30 31 32 35 37 32 30 24 22 20 21 22 25 26 26 24 20 19 18 18 18 19 22 24 24 23 24 27 26
39 39 38 37 40 38 36 33 31 29 26 27 28 27 28 27 30 34 41 37 34 30 26 25 24 22 23 25 26 27 27 25 23 22 23 22 23 24 26 27 27 28 28 28
Wind_Direction
215 206 186 174 190 185 183 196 208 250 271 240 282 300 297 297 300 338 0 352 359 359 351 353 351 354 353 345 339 347 358 355 359 3 2 356 192 180 182 211 223 247 261 280
215 198 197 204 213 188 197 215 220 224 241 252 253 283 301 298 314 327 333 340 344 342 337 339 348 348 349 341 335 347 353 359 4 15 22 135 166 160 178 204 242 251 261 276
213 206 214 219 227 215 210 230 245 233 241 254 265 260 287 288 301 308 324 322 322 322 330 329 338 339 344 333 337 346 348 2 3 12 25 42 170 171 181 203 249 265 274 284
219 218 223 224 227 229 221 234 242 238 238 248 274 284 288 267 281 281 298 294 307 308 321 320 331 330 339 332 336 337 349 359 357 1 26 36 117 166 188 256 276 280 279 276
224 226 231 232 229 233 225 237 246 252 249 247 258 277 281 276 281 284 324 336 297 303 314 315 327 330 336 334 332 341 345 352 347 339 343 25 127 147 250 284 283 286 282 286
226 228 234 235 234 237 236 242 249 261 258 258 250 258 258 287 301 308 357 338 297 313 311 320 327 333 335 331 338 343 343 339 339 307 322 196 177 176 238 291 287 281 279 276
228 232 236 244 251 237 234 239 250 246 250 246 252 262 266 273 306 332 333 319 291 311 306 312 326 337 326 332 338 338 336 330 322 296 248 230 198 183 287 280 267 273 279 278
222 229 237 242 238 240 227 232 248 252 250 257 260 268 267 272 289 297 311 312 331 314 321 304 319 317 322 324 329 328 331 332 309 295 231 221 217 211 264 287 335 350 235 237
228 224 234 220 225 227 215 224 239 250 254 259 262 268 279 285 290 301 319 328 340 315 315 301 314 306 314 316 318 319 323 322 313 273 231 218 231 273 277 330 359 342 250 212
229 220 229 222 235 226 226 217 232 246 255 260 273 281 279 287 297 313 311 315 327 329 333 318 306 309 314 307 309 317 312 312 307 286 241 214 230 245 275 355 337 329 305 145
227 216 216 228 230 229 228 229 238 240 249 263 269 278 291 297 305 298 305 322 322 339 348 338 332 312 308 301 310 313 317 313 295 307 212 213 219 234 272 267 298 302 279 284
221 219 212 223 216 204 215 230 236 240 245 252 263 278 292 301 299 301 309 305 312 314 306 320 312 292 296 298 310 318 330 326 234 198 188 211 194 224 249 291 273 271 278 275
215 218 208 213 217 215 219 230 232 237 234 251 270 283 295 303 296 299 291 296 300 309 315 311 305 278 291 296 306 323 334 5 134 166 156 181 192 271 299 286 271 259 271 268
212 213 214 221 227 220 222 236 231 242 256 269 280 287 293 293 286 271 286 305 316 324 330 305 298 278 286 289 296 323 332 352 23 71 121 179 217 245 264 264 256 245 256 260
209 216 212 211 221 222 223 235 251 258 262 274 283 280 281 291 289 290 303 300 298 307 316 315 279 270 280 285 291 310 314 330 353 353 358 235 283 193 221 248 264 261 265 279
215 217 218 219 224 227 230 238 249 253 261 271 271 274 289 288 284 292 294 302 302 295 333 291 282 286 274 275 281 288 294 306 317 326 303 286 231 242 244 264 271 269 261 277
223 226 227 229 232 236 240 244 249 255 263 266 270 278 290 302 299 298 300 303 306 302 296 251 257 268 265 261 267 279 287 302 297 291 290 277 255 249 264 257 269 271 279 283
229 230 233 236 240 246 252 257 257 255 257 263 271 283 296 298 299 299 300 315 308 307 267 236 267 267 262 257 250 280 295 297 293 275 269 260 244 254 257 227 236 269 268 264
227 231 234 236 242 248 252 258 259 260 261 264 271 285 294 296 302 303 309 303 294 287 282 256 265 282 280 303 306 308 303 307 305 299 266 260 279 328 133 202 230 306 247 263
225 236 237 239 239 247 251 257 259 265 268 270 271 276 289 298 305 299 301 305 284 270 263 257 261 275 289 297 299 299 297 287 322 292 312 311 353 326 333 355 356 282 310 315
225 232 237 238 239 251 257 251 249 257 270 273 272 273 279 282 287 281 279 274 279 255 250 263 256 277 290 295 297 301 301 330 323 329 334 322 322 324 324 334 5 354 330 305
240 244 239 243 247 256 255 257 257 258 262 267 271 275 278 284 279 278 277 273 281 271 261 259 274 279 293 299 307 309 312 315 306 306 310 310 306 308 321 322 335 332 331 322
239 241 243 246 250 255 257 257 260 264 268 268 265 265 269 273 270 264 258 270 266 260 256 256 266 273 277 288 299 308 312 303 291 286 290 298 303 306 303 307 306 311 318 314
240 244 246 248 251 255 259 262 264 268 267 265 266 264 266 270 269 262 251 253 258 260 264 270 271 277 284 290 291 290 293 294 291 289 289 288 300 304 303 300 301 302 305 302
240 245 249 254 257 258 258 261 263 263 260 265 263 260 268 269 267 276 264 251 250 253 258 261 265 272 280 281 283 286 287 291 297 296 293 296 299 299 300 301 297 297 301 298
232 239 244 247 251 254 257 258 262 254 249 252 260 266 275 274 269 274 271 248 245 249 259 265 268 269 271 273 276 280 286 290 289 290 291 293 294 295 297 299 300 297 295 293